Weather History for Norman, OK

Change the Weather History Date:

Monday, January 21, 2013

  Actual Average Record
Temperature  
Mean Temperature 32 °F -  
Max Temperature 42 °F 51 °F 71 °F (1957)
Min Temperature 23 °F 34 °F 6 °F (1954)
Degree Days  
Heating Degree Days 32    
Moisture  
Dew Point 19 °F    
Average Humidity 59    
Maximum Humidity 74    
Minimum Humidity 42    
Precipitation  
Precipitation 0.00 in - - ()
Sea Level Pressure  
Sea Level Pressure 30.32 in    
Wind  
Wind Speed 11 mph (NNE)    
Max Wind Speed 16 mph    
Max Gust Speed 25 mph    
Visibility 10 miles    
Events      
Averages and records for this station are not official NWS values.
T = Trace of Precipitation, MM = Missing Value Source: NWS Daily Summary

Daily Weather History Graph

Daily Weather History Graph

Search for Another Location

Airport:

Trip Planner

Search our weather history database for the weather conditions in past years. The results will help you decide how hot, cold, wet, or windy it might be!

Date:

Astronomy

Jan. 21, 2013 Rise Set
Actual Time 7:35 AM CST 5:47 PM CST
Civil Twilight 7:08 AM CST 6:14 PM CST
Nautical Twilight 6:37 AM CST 6:45 PM CST
Astronomical Twilight 6:07 AM CST 7:15 PM CST
Moon 1:28 PM CST (1/21) 3:04 AM CST (1/21)
Length of Visible Light 11h 06m
Length of Day
10h 11m
Waxing Gibbous, 75% of the Moon is Illuminated
Jan 21
Waxing Gibbous
Jan 26
Full
Feb 3
Last Quarter
Feb 10
New
Feb 17
First Quarter

Hourly Weather History & Observations

Time (CST) Temp. Windchill Dew Point Humidity Pressure Visibility Wind Dir Wind Speed Gust Speed Precip Events Conditions
12:15 AM 37.4 °F 29.3 °F 26.6 °F 65% 30.27 in 10.0 mi NNE 12.7 mph 25.3 mph N/A   Clear
12:35 AM 35.6 °F 25.9 °F 24.8 °F 65% 30.27 in 10.0 mi NNE 16.1 mph - N/A   Clear
12:55 AM 33.8 °F 24.3 °F 24.8 °F 70% 30.28 in 10.0 mi North 13.8 mph 19.6 mph N/A   Clear
1:15 AM 32.0 °F 21.6 °F 23.0 °F 69% 30.29 in 10.0 mi North 15.0 mph 19.6 mph N/A   Clear
1:35 AM 32.0 °F 21.6 °F 21.2 °F 64% 30.30 in 10.0 mi North 15.0 mph - N/A   Clear
1:55 AM 32.0 °F 22.5 °F 21.2 °F 64% 30.31 in 10.0 mi North 12.7 mph 18.4 mph N/A   Clear
2:15 AM 30.2 °F 19.8 °F 21.2 °F 69% 30.31 in 10.0 mi North 13.8 mph 17.3 mph N/A   Clear
2:35 AM 30.2 °F 20.2 °F 19.4 °F 64% 30.32 in 10.0 mi North 12.7 mph - N/A   Clear
2:55 AM 30.2 °F 20.2 °F 19.4 °F 64% 30.32 in 10.0 mi North 12.7 mph - N/A   Clear
3:15 AM 28.4 °F 18.0 °F 19.4 °F 69% 30.32 in 10.0 mi North 12.7 mph - N/A   Clear
3:55 AM 28.4 °F 17.5 °F 17.6 °F 64% 30.33 in 10.0 mi North 13.8 mph - N/A   Clear
4:15 AM 26.6 °F 16.2 °F 17.6 °F 69% 30.33 in 10.0 mi North 11.5 mph 19.6 mph N/A   Clear
4:35 AM 26.6 °F 15.7 °F 17.6 °F 69% 30.33 in 10.0 mi North 12.7 mph 17.3 mph N/A   Clear
4:55 AM 26.6 °F 15.7 °F 17.6 °F 69% 30.34 in 10.0 mi North 12.7 mph - N/A   Clear
5:15 AM 26.6 °F 14.7 °F 17.6 °F 69% 30.33 in 10.0 mi NNE 15.0 mph - N/A   Clear
5:35 AM 26.6 °F 15.7 °F 17.6 °F 69% 30.34 in 10.0 mi NNE 12.7 mph - N/A   Clear
5:55 AM 24.8 °F 14.0 °F 17.6 °F 74% 30.34 in 10.0 mi NNE 11.5 mph 16.1 mph N/A   Clear
6:15 AM 24.8 °F 13.4 °F 15.8 °F 69% 30.34 in 10.0 mi NNE 12.7 mph 18.4 mph N/A   Clear
6:35 AM 24.8 °F 14.0 °F 15.8 °F 69% 30.34 in 10.0 mi NNE 11.5 mph - N/A   Clear
6:55 AM 23.0 °F 11.7 °F 15.8 °F 74% 30.34 in 10.0 mi NNE 11.5 mph - N/A   Clear
7:15 AM 23.0 °F 13.1 °F 15.8 °F 74% 30.35 in 10.0 mi NNE 9.2 mph - N/A   Clear
7:35 AM 23.0 °F 11.7 °F 14.0 °F 68% 30.36 in 10.0 mi NNE 11.5 mph - N/A   Clear
7:55 AM 23.0 °F 13.1 °F 15.8 °F 74% 30.37 in 10.0 mi NNE 9.2 mph - N/A   Clear
8:15 AM 26.6 °F 17.5 °F 15.8 °F 64% 30.37 in 10.0 mi NNE 9.2 mph - N/A   Clear
8:35 AM 26.6 °F 16.8 °F 15.8 °F 64% 30.38 in 10.0 mi NNE 10.4 mph - N/A   Clear
8:55 AM 28.4 °F 18.5 °F 15.8 °F 59% 30.38 in 10.0 mi NNE 11.5 mph - N/A   Clear
9:15 AM 28.4 °F 18.0 °F 17.6 °F 64% 30.40 in 10.0 mi North 12.7 mph - N/A   Clear
9:35 AM 30.2 °F 21.3 °F 17.6 °F 60% 30.41 in 10.0 mi NNE 10.4 mph - N/A   Clear
9:55 AM 30.2 °F 21.3 °F 17.6 °F 60% 30.41 in 10.0 mi NNE 10.4 mph - N/A   Clear
10:15 AM 32.0 °F 23.0 °F 17.6 °F 55% 30.41 in 10.0 mi North 11.5 mph - N/A   Clear
10:35 AM 32.0 °F 23.0 °F 17.6 °F 55% 30.42 in 10.0 mi NNE 11.5 mph - N/A   Clear
10:55 AM 32.0 °F 22.1 °F 17.6 °F 55% 30.41 in 10.0 mi NNE 13.8 mph - N/A   Clear
11:15 AM 33.8 °F 25.3 °F 19.4 °F 56% 30.41 in 10.0 mi North 11.5 mph - N/A   Clear
11:35 AM 33.8 °F 25.3 °F 19.4 °F 56% 30.40 in 10.0 mi North 11.5 mph 17.3 mph N/A   Clear
11:55 AM 35.6 °F 27.1 °F 19.4 °F 52% 30.39 in 10.0 mi North 12.7 mph - N/A   Clear
12:15 PM 35.6 °F 29.2 °F 19.4 °F 52% 30.38 in 10.0 mi NNE 8.1 mph - N/A   Clear
12:35 PM 37.4 °F 31.4 °F 19.4 °F 48% 30.36 in 10.0 mi NNE 8.1 mph 16.1 mph N/A   Clear
12:55 PM 37.4 °F 30.3 °F 19.4 °F 48% 30.35 in 10.0 mi North 10.4 mph - N/A   Clear
1:15 PM 39.2 °F 33.0 °F 19.4 °F 45% 30.34 in 10.0 mi North 9.2 mph - N/A   Clear
1:35 PM 41.0 °F 37.1 °F 19.4 °F 42% 30.32 in 10.0 mi NE 5.8 mph - N/A   Clear
1:55 PM 41.0 °F 35.8 °F 21.2 °F 45% 30.32 in 10.0 mi North 8.1 mph - N/A   Clear
2:15 PM 41.0 °F 36.4 °F 21.2 °F 45% 30.31 in 10.0 mi NNE 6.9 mph - N/A   Clear
2:35 PM 41.0 °F 36.4 °F 21.2 °F 45% 30.29 in 10.0 mi ENE 6.9 mph - N/A   Clear
2:55 PM 42.8 °F 37.5 °F 21.2 °F 42% 30.29 in 10.0 mi ENE 9.2 mph - N/A   Clear
3:15 PM 42.8 °F 38.6 °F 21.2 °F 42% 30.29 in 10.0 mi ENE 6.9 mph - N/A   Clear
3:35 PM 42.8 °F 39.3 °F 21.2 °F 42% 30.29 in 10.0 mi NE 5.8 mph - N/A   Clear
3:55 PM 42.8 °F 40.1 °F 21.2 °F 42% 30.28 in 10.0 mi NE 4.6 mph - N/A   Clear
4:15 PM 42.8 °F - 21.2 °F 42% 30.29 in 10.0 mi Calm Calm - N/A   Clear
4:35 PM 42.8 °F 40.1 °F 21.2 °F 42% 30.29 in 10.0 mi NE 4.6 mph - N/A   Clear
4:55 PM 41.0 °F 38.0 °F 21.2 °F 45% 30.28 in 10.0 mi NE 4.6 mph - N/A   Clear
5:15 PM 41.0 °F 37.1 °F 21.2 °F 45% 30.27 in 10.0 mi NNE 5.8 mph - N/A   Clear
5:35 PM 37.4 °F 32.8 °F 21.2 °F 52% 30.27 in 10.0 mi NE 5.8 mph - N/A   Clear
5:55 PM 35.6 °F 30.7 °F 19.4 °F 52% 30.27 in 10.0 mi NE 5.8 mph - N/A   Clear
6:15 PM 37.4 °F 33.8 °F 19.4 °F 48% 30.26 in 10.0 mi ENE 4.6 mph - N/A   Clear
6:55 PM 35.6 °F 31.7 °F 19.4 °F 52% 30.26 in 10.0 mi East 4.6 mph - N/A   Clear
7:15 PM 35.6 °F 32.8 °F 19.4 °F 52% 30.26 in 10.0 mi East 3.5 mph - N/A   Clear
7:35 PM 33.8 °F 29.6 °F 19.4 °F 56% 30.26 in 10.0 mi ENE 4.6 mph - N/A   Clear
7:55 PM 33.8 °F 29.6 °F 21.2 °F 60% 30.27 in 10.0 mi NE 4.6 mph - N/A   Clear
8:35 PM 32.0 °F 27.5 °F 21.2 °F 64% 30.28 in 10.0 mi NE 4.6 mph - N/A   Clear
8:55 PM 32.0 °F 28.7 °F 19.4 °F 60% 30.29 in 10.0 mi ENE 3.5 mph - N/A   Clear
9:15 PM 32.0 °F 28.7 °F 19.4 °F 60% 30.29 in 10.0 mi NE 3.5 mph - N/A   Clear
9:35 PM 32.0 °F - 19.4 °F 60% 30.29 in 10.0 mi Calm Calm - N/A   Clear
9:55 PM 32.0 °F 28.7 °F 19.4 °F 60% 30.30 in 10.0 mi NE 3.5 mph - N/A   Clear
10:15 PM 30.2 °F 24.3 °F 19.4 °F 64% 30.30 in 10.0 mi NE 5.8 mph - N/A   Clear
10:35 PM 30.2 °F 26.7 °F 21.2 °F 69% 30.30 in 10.0 mi ENE 3.5 mph - N/A   Clear
10:55 PM 30.2 °F 25.4 °F 19.4 °F 64% 30.30 in 10.0 mi NE 4.6 mph - N/A   Clear
11:35 PM 30.2 °F 25.4 °F 19.4 °F 64% 30.29 in 10.0 mi ENE 4.6 mph - N/A   Clear
11:55 PM 30.2 °F 24.3 °F 19.4 °F 64% 30.28 in 10.0 mi East 5.8 mph - N/A   Clear